Date String (YYYY-MM-DD hh:mm:ss) UTC,Instrument flags,Ambient pressure (hPa),Sample flow (lpm),Bypass flow (lpm),Sample temperature (°C),Ambient temperature (°C),ASC tube jacket temperature (°C),LED temperature (°C),Box temperature (°C),Sample RH (%),Span deviation,Mass concentration (μg/m³),Mass concentration (μg/m³),Mass concentration (μg/m³)
DateTimeUTC,F1_M11,P_M11,Q1_M11,Q2_M11,T1_M11,T2_M11,T3_M11,T4_M11,T5_M11,U1_M11,ZSPAN_M11,X0_M11,X2_M11,X1_M11
2021-10-08 10:00:00,,0827.0,5.01,0.00,29.9,29.0,00.0,39.0,31.7,15.0,0000.0,0009.82,0003.63,0002.81
2021-10-08 10:01:00,,0826.9,5.01,0.00,30.0,29.0,00.0,39.0,31.7,14.8,0000.0,0009.95,0003.69,0002.86
2021-10-08 10:02:00,,0827.1,4.99,0.00,30.0,29.1,00.0,39.0,31.8,14.6,0000.0,0010.30,0003.77,0002.91
2021-10-08 10:03:00,,0826.9,5.00,0.00,30.0,29.1,00.0,39.1,31.8,14.3,0000.0,0010.29,0003.84,0002.95
2021-10-08 10:04:00,,0826.9,5.00,0.00,30.0,29.1,00.0,39.1,31.8,14.3,0000.0,0010.32,0003.88,0002.97
2021-10-08 10:05:00,,0826.8,5.00,0.00,30.0,29.1,00.0,39.1,31.8,14.4,0000.0,0010.11,0003.88,0002.98
2021-10-08 10:06:00,,0826.8,4.99,0.00,30.0,29.1,00.0,39.1,31.9,14.4,0000.0,0009.71,0003.82,0002.98
2021-10-08 10:07:00,,0826.8,5.01,0.00,30.0,29.1,00.0,39.1,31.9,14.5,0000.0,0010.66,0003.79,0002.98
2021-10-08 10:08:00,,0826.9,5.00,0.00,30.0,29.1,00.0,39.1,31.8,14.5,0000.0,0011.11,0003.74,0002.98
2021-10-08 10:09:00,,0826.8,5.00,0.00,30.0,29.1,00.0,39.1,31.8,14.4,0000.0,0011.06,0003.69,0002.97
2021-10-08 10:10:00,,0826.8,5.01,0.00,30.1,29.1,00.0,39.1,31.9,14.3,0000.0,0010.48,0003.66,0002.96
2021-10-08 10:11:00,,0826.8,5.00,0.00,30.1,29.2,00.0,39.1,31.9,14.2,0000.0,0009.54,0003.62,0002.92
2021-10-08 10:12:00,,0826.8,4.99,0.00,30.1,29.2,00.0,39.1,31.9,14.3,0000.0,0009.37,0003.57,0002.91
2021-10-08 10:13:00,,0826.8,4.99,0.00,30.1,29.2,00.0,39.1,31.9,14.3,0000.0,0008.96,0003.50,0002.90
2021-10-08 10:14:00,,0826.9,5.01,0.00,30.1,29.3,00.0,39.2,31.9,14.5,0000.0,0008.89,0003.48,0002.90
2021-10-08 10:15:00,,0826.8,5.00,0.00,30.1,29.3,00.0,39.2,31.9,14.7,0000.0,0008.90,0003.45,0002.91
2021-10-08 10:16:00,,0827.0,4.99,0.00,30.1,29.3,00.0,39.2,31.9,14.6,0000.0,0009.82,0003.45,0002.91
2021-10-08 10:17:00,,0827.1,5.00,0.00,30.1,29.3,00.0,39.2,31.9,14.4,0000.0,0010.22,0003.47,0002.90
2021-10-08 10:18:00,,0827.0,5.02,0.00,30.2,29.3,00.0,39.2,31.9,14.4,0000.0,0009.04,0003.46,0002.90
2021-10-08 10:19:00,,0827.0,4.99,0.00,30.2,29.3,00.0,39.2,32.0,14.3,0000.0,0008.95,0003.47,0002.89
2021-10-08 10:20:00,,0826.8,5.01,0.00,30.2,29.3,00.0,39.2,32.0,14.3,0000.0,0008.50,0003.49,0002.89
2021-10-08 10:21:00,,0826.9,5.00,0.00,30.2,29.3,00.0,39.3,32.0,14.3,0000.0,0008.52,0003.49,0002.90
2021-10-08 10:22:00,,0826.8,4.99,0.00,30.2,29.3,00.0,39.3,32.0,14.2,0000.0,0008.98,0003.52,0002.94
2021-10-08 10:23:00,,0826.8,5.00,0.00,30.2,29.3,00.0,39.3,32.0,14.2,0000.0,0009.08,0003.54,0002.95
2021-10-08 10:24:00,,0827.1,5.00,0.00,30.2,29.3,00.0,39.3,32.0,14.3,0000.0,0009.19,0003.56,0002.96
2021-10-08 10:25:00,,0826.9,4.99,0.00,30.2,29.3,00.0,39.3,32.0,14.3,0000.0,0009.25,0003.57,0002.97
2021-10-08 10:26:00,,0826.9,5.00,0.00,30.2,29.3,00.0,39.3,32.0,14.3,0000.0,0009.26,0003.53,0002.96
2021-10-08 10:27:00,,0826.9,5.01,0.00,30.2,29.3,00.0,39.3,32.0,14.4,0000.0,0008.74,0003.51,0002.98
2021-10-08 10:28:00,,0827.1,4.99,0.00,30.2,29.3,00.0,39.3,32.0,14.4,0000.0,0008.92,0003.50,0002.99
2021-10-08 10:29:00,,0827.0,5.00,0.00,30.2,29.3,00.0,39.3,32.0,14.4,0000.0,0009.78,0003.48,0003.00
2021-10-08 10:30:00,,0826.8,5.00,0.00,30.2,29.4,00.0,39.3,32.0,14.3,0000.0,0009.26,0003.44,0003.01
2021-10-08 10:31:00,,0826.7,5.00,0.00,30.3,29.4,00.0,39.3,32.0,14.4,0000.0,0009.37,0003.44,0003.00
2021-10-08 10:32:00,,0826.7,5.01,0.00,30.3,29.4,00.0,39.4,32.0,14.4,0000.0,0009.87,0003.46,0003.01
2021-10-08 10:33:00,,0826.7,5.00,0.00,30.3,29.4,00.0,39.4,32.0,14.4,0000.0,0010.26,0003.46,0003.00
2021-10-08 10:34:00,,0826.7,5.00,0.00,30.3,29.4,00.0,39.4,32.0,14.4,0000.0,0010.85,0003.47,0003.01
2021-10-08 10:35:00,,0826.8,5.00,0.00,30.3,29.4,00.0,39.4,32.0,14.4,0000.0,0010.82,0003.47,0002.99
2021-10-08 10:36:00,,0827.0,4.99,0.00,30.3,29.4,00.0,39.4,32.0,14.5,0000.0,0010.84,0003.49,0002.98
2021-10-08 10:37:00,,0826.9,5.00,0.00,30.3,29.4,00.0,39.4,32.0,14.5,0000.0,0011.53,0003.55,0003.00
2021-10-08 10:38:00,,0827.1,5.02,0.00,30.3,29.4,00.0,39.4,32.0,14.5,0000.0,0011.95,0003.56,0003.02
2021-10-08 10:39:00,,0826.9,5.00,0.00,30.3,29.4,00.0,39.4,32.0,14.5,0000.0,0011.85,0003.62,0003.04
2021-10-08 10:40:00,,0826.9,4.99,0.00,30.3,29.4,00.0,39.4,32.0,14.5,0000.0,0011.20,0003.69,0003.07
2021-10-08 10:41:00,,0826.9,5.00,0.00,30.3,29.4,00.0,39.4,32.0,14.6,0000.0,0011.23,0003.75,0003.10
2021-10-08 10:42:00,,0826.9,4.99,0.00,30.3,29.4,00.0,39.4,32.0,14.6,0000.0,0011.32,0003.79,0003.13
2021-10-08 10:43:00,,0827.0,5.01,0.00,30.3,29.4,00.0,39.4,32.1,14.6,0000.0,0010.96,0003.77,0003.14
2021-10-08 10:44:00,,0827.0,4.99,0.00,30.3,29.4,00.0,39.4,32.1,14.6,0000.0,0010.15,0003.78,0003.15
2021-10-08 10:45:00,,0827.2,4.99,0.00,30.3,29.4,00.0,39.4,32.0,14.6,0000.0,0009.77,0003.81,0003.17
2021-10-08 10:46:00,,0827.2,4.99,0.00,30.3,29.4,00.0,39.4,32.0,14.7,0000.0,0009.92,0003.85,0003.20
2021-10-08 10:47:00,,0827.1,5.01,0.00,30.3,29.5,00.0,39.4,32.0,14.8,0000.0,0010.27,0003.87,0003.21
2021-10-08 10:48:00,,0827.3,5.01,0.00,30.3,29.5,00.0,39.4,32.0,14.7,0000.0,0009.73,0003.85,0003.21
2021-10-08 10:49:00,,0827.4,4.99,0.00,30.3,29.5,00.0,39.4,32.1,14.7,0000.0,0009.35,0003.86,0003.20
2021-10-08 10:50:00,,0827.2,4.99,0.00,30.3,29.5,00.0,39.4,32.1,14.7,0000.0,0008.92,0003.82,0003.21
2021-10-08 10:51:00,,0827.3,5.00,0.00,30.3,29.5,00.0,39.4,32.1,14.7,0000.0,0009.36,0003.80,0003.21
2021-10-08 10:52:00,,0827.3,5.01,0.00,30.3,29.5,00.0,39.5,32.1,14.7,0000.0,0009.98,0003.81,0003.21
2021-10-08 10:53:00,,0827.4,4.99,0.00,30.4,29.5,00.0,39.5,32.1,14.6,0000.0,0010.04,0003.82,0003.22
2021-10-08 10:54:00,,0827.2,5.01,0.00,30.4,29.5,00.0,39.5,32.1,14.7,0000.0,0010.78,0003.86,0003.23
2021-10-08 10:55:00,,0827.2,5.00,0.00,30.4,29.6,00.0,39.5,32.1,14.6,0000.0,0011.52,0003.88,0003.24
2021-10-08 10:56:00,,0827.1,5.00,0.00,30.4,29.5,00.0,39.5,32.1,14.6,0000.0,0011.59,0003.91,0003.26
2021-10-08 10:57:00,,0827.2,5.00,0.00,30.4,29.5,00.0,39.5,32.1,14.6,0000.0,0011.76,0003.94,0003.27
2021-10-08 10:58:00,,0827.1,4.99,0.00,30.4,29.5,00.0,39.5,32.1,14.6,0000.0,0012.36,0004.02,0003.30
2021-10-08 10:59:00,,0827.1,5.01,0.00,30.4,29.6,00.0,39.5,32.1,14.6,0000.0,0012.83,0004.08,0003.36
